Location: Newark
(61.5000°N, 23.7667°E)
Time: 16:55:32
(UTC+00:00)

NO-84 - Visible Passes

Search period start: 13 November 2019 00:00
Search period end: 23 November 2019 00:00
Orbit: 331 x 505 km, 55.0° (Epoch: 05 November)

Date Brightness Start Highest point End Pass type
(mag) Time Alt. Az. Time Alt. Az. Time Alt. Az.
13 Nov ? 15:27:42 10° WSW 15:30:39 28° S 15:33:45 10° ESE visible
13 Nov ? 17:03:51 10° WSW 17:06:29 20° SSW 17:06:48 20° SSW visible
14 Nov ? 14:40:09 10° SW 14:43:01 27° S 14:46:04 10° ESE visible
14 Nov ? 16:16:07 10° WSW 16:18:53 23° SSW 16:20:53 15° SSE visible
14 Nov ? 17:53:30 10° SW 17:53:50 11° SW 17:53:50 11° SW visible
15 Nov ? 15:28:25 10° WSW 15:31:16 25° S 15:34:16 10° SE visible
15 Nov ? 17:05:04 10° WSW 17:06:59 14° SSW 17:07:58 13° SSW visible
16 Nov ? 14:40:44 10° WSW 14:43:36 27° S 14:46:37 10° SE visible
16 Nov ? 16:17:03 10° WSW 16:19:24 17° SSW 16:21:49 10° SSE visible
17 Nov ? 15:29:10 10° WSW 15:31:45 20° SSW 15:34:27 10° SSE visible
18 Nov ? 14:41:22 10° WSW 14:44:04 23° SSW 14:46:55 10° SE visible
18 Nov ? 16:18:33 10° SW 16:19:42 11° SW 16:20:53 10° SSW visible
19 Nov ? 15:30:09 10° WSW 15:32:04 14° SSW 15:34:03 10° S visible
20 Nov ? 14:42:04 10° WSW 14:44:23 17° SSW 14:46:47 10° SSE visible
22 Nov ? 14:43:14 10° SW 14:44:31 12° SSW 14:45:49 10° S visible
